• In Uzbekistan
  • List of Countries
  • For 7 days
  • Water Temperature
  • Satellite Maps
  • Weather Map
  • Weather Widgets
  • user-avatar
    Login

    Hourly Weather Tibissa

    Today, 27 June, Tuesday

    Time Temperature Precipitation Wind Pressure Humidity
    00:00 +29°C° 0 mm 3 mps 686 mmHg 24%
    01:00 +29°C° 0 mm 3 mps 686 mmHg 25%
    02:00 +28°C° 0 mm 2 mps 686 mmHg 26%
    03:00 +28°C° 0 mm 2 mps 686 mmHg 26%
    04:00 +27°C° 0 mm 2 mps 686 mmHg 27%
    05:00 +28°C° 0 mm 2 mps 686 mmHg 26%
    06:00 +29°C° 0 mm 2 mps 686 mmHg 26%
    07:00 +29°C° 0 mm 1 mps 686 mmHg 25%
    08:00 +31°C° 0 mm 2 mps 687 mmHg 22%
    09:00 +35°C° 0 mm 2 mps 687 mmHg 19%
    10:00 +37°C° 0 mm 3 mps 688 mmHg 16%
    11:00 +38°C° 0 mm 3 mps 688 mmHg 15%
    12:00 +40°C° 0 mm 4 mps 688 mmHg 14%
    13:00 +42°C° 0 mm 4 mps 688 mmHg 13%
    14:00 +41°C° 0 mm 4 mps 687 mmHg 15%
    15:00 +38°C° 0 mm 4 mps 687 mmHg 17%
    16:00 +37°C° 0 mm 4 mps 686 mmHg 18%
    17:00 +37°C° 0 mm 3 mps 686 mmHg 20%
    18:00 +36°C° 0 mm 3 mps 686 mmHg 23%
    19:00 +35°C° 0 mm 2 mps 686 mmHg 25%
    20:00 +32°C° 0.1 mm 2 mps 686 mmHg 28%
    21:00 +31°C° 0.1 mm 2 mps 686 mmHg 31%
    22:00 +29°C° 0.1 mm 1 mps 686 mmHg 34%
    23:00 +29°C° 0 mm 2 mps 686 mmHg 34%

    Tomorrow, 28 June, Wednesday

    Time Temperature Precipitation Wind Pressure Humidity
    00:00 +29°C° 0 mm 2 mps 686 mmHg 35%
    01:00 +28°C° 0 mm 2 mps 685 mmHg 35%
    02:00 +28°C° 0 mm 2 mps 685 mmHg 35%
    03:00 +27°C° 0 mm 2 mps 685 mmHg 35%
    04:00 +27°C° 0 mm 3 mps 684 mmHg 35%
    05:00 +28°C° 0 mm 3 mps 685 mmHg 33%
    06:00 +29°C° 0 mm 3 mps 685 mmHg 31%
    07:00 +29°C° 0 mm 3 mps 685 mmHg 29%
    08:00 +33°C° 0 mm 4 mps 686 mmHg 23%
    09:00 +35°C° 0 mm 6 mps 686 mmHg 18%
    10:00 +39°C° 0 mm 7 mps 687 mmHg 12%
    11:00 +40°C° 0 mm 8 mps 686 mmHg 11%
    12:00 +40°C° 0 mm 8 mps 686 mmHg 10%
    13:00 +42°C° 0 mm 9 mps 686 mmHg 9%
    14:00 +42°C° 0 mm 9 mps 686 mmHg 9%
    15:00 +42°C° 0 mm 9 mps 685 mmHg 9%
    16:00 +42°C° 0 mm 9 mps 685 mmHg 9%
    17:00 +40°C° 0 mm 8 mps 685 mmHg 10%
    18:00 +39°C° 0 mm 6 mps 685 mmHg 11%
    19:00 +36°C° 0 mm 5 mps 684 mmHg 12%
    20:00 +34°C° 0 mm 4 mps 684 mmHg 16%
    21:00 +31°C° 0 mm 3 mps 684 mmHg 20%
    22:00 +29°C° 0 mm 2 mps 685 mmHg 24%
    23:00 +28°C° 0 mm 2 mps 684 mmHg 28%

    Day after tomorrow, 29 June, Thursday

    Time Temperature Precipitation Wind Pressure Humidity
    00:00 +27°C° 0 mm 3 mps 684 mmHg 32%
    01:00 +26°C° 0 mm 3 mps 684 mmHg 36%
    02:00 +25°C° 0 mm 2 mps 684 mmHg 40%
    03:00 +24°C° 0 mm 2 mps 683 mmHg 45%
    04:00 +23°C° 0 mm 1 mps 683 mmHg 50%
    05:00 +24°C° 0 mm 1 mps 683 mmHg 49%
    06:00 +24°C° 0 mm 1 mps 684 mmHg 47%
    07:00 +25°C° 0 mm 1 mps 684 mmHg 46%
    08:00 +27°C° 0 mm 2 mps 685 mmHg 38%
    09:00 +30°C° 0 mm 2 mps 685 mmHg 30%
    10:00 +34°C° 0 mm 3 mps 686 mmHg 21%
    11:00 +36°C° 0 mm 4 mps 686 mmHg 18%
    12:00 +39°C° 0 mm 6 mps 686 mmHg 14%
    13:00 +41°C° 0 mm 7 mps 686 mmHg 11%
    14:00 +41°C° 0 mm 7 mps 686 mmHg 11%
    15:00 +41°C° 0 mm 8 mps 686 mmHg 10%
    16:00 +41°C° 0 mm 8 mps 685 mmHg 10%
    17:00 +40°C° 0 mm 7 mps 685 mmHg 11%
    18:00 +39°C° 0 mm 6 mps 685 mmHg 13%
    19:00 +36°C° 0 mm 6 mps 685 mmHg 14%
    20:00 +34°C° 0 mm 4 mps 685 mmHg 19%
    21:00 +31°C° 0 mm 3 mps 685 mmHg 24%
    22:00 +29°C° 0 mm 2 mps 685 mmHg 30%
    23:00 +28°C° 0 mm 2 mps 685 mmHg 33%

    30 June, Friday

    Time Temperature Precipitation Wind Pressure Humidity
    00:00 +27°C° 0 mm 2 mps 684 mmHg 35%
    01:00 +26°C° 0 mm 2 mps 684 mmHg 38%
    02:00 +26°C° 0 mm 2 mps 684 mmHg 41%
    03:00 +26°C° 0 mm 3 mps 683 mmHg 44%
    04:00 +25°C° 0 mm 3 mps 683 mmHg 47%
    05:00 +26°C° 0 mm 3 mps 683 mmHg 42%
    06:00 +28°C° 0 mm 4 mps 683 mmHg 38%
    07:00 +29°C° 0 mm 4 mps 684 mmHg 33%
    08:00 +33°C° 0 mm 6 mps 684 mmHg 26%
    09:00 +37°C° 0 mm 8 mps 685 mmHg 19%
    10:00 +40°C° 0 mm 10 mps 686 mmHg 12%
    11:00 +42°C° 0 mm 10 mps 685 mmHg 11%
    12:00 +42°C° 0 mm 10 mps 685 mmHg 11%
    13:00 +43°C° 0 mm 10 mps 685 mmHg 10%
    14:00 +43°C° 0 mm 10 mps 685 mmHg 10%
    15:00 +43°C° 0 mm 10 mps 684 mmHg 9%
    16:00 +43°C° 0 mm 10 mps 684 mmHg 9%
    17:00 +41°C° 0 mm 8 mps 684 mmHg 10%
    18:00 +40°C° 0 mm 7 mps 683 mmHg 10%
    19:00 +39°C° 0 mm 6 mps 683 mmHg 11%
    20:00 +36°C° 0 mm 6 mps 684 mmHg 16%
    21:00 +34°C° 0 mm 5 mps 684 mmHg 20%
    22:00 +33°C° 0 mm 5 mps 684 mmHg 24%
    23:00 +29°C° 0 mm 5 mps 684 mmHg 34%

    1 July, Saturday

    Time Temperature Precipitation Wind Pressure Humidity
    00:00 +27°C° 0 mm 5 mps 684 mmHg 45%
    01:00 +25°C° 0 mm 4 mps 684 mmHg 55%
    02:00 +23°C° 0 mm 4 mps 684 mmHg 62%
    03:00 +22°C° 0 mm 4 mps 683 mmHg 70%
    04:00 +20°C° 0 mm 4 mps 683 mmHg 77%
    05:00 +21°C° 0 mm 4 mps 684 mmHg 76%
    06:00 +21°C° 0 mm 4 mps 684 mmHg 75%
    07:00 +21°C° 0 mm 4 mps 684 mmHg 73%
    08:00 +22°C° 0 mm 4 mps 685 mmHg 67%
    09:00 +25°C° 0 mm 4 mps 685 mmHg 61%
    10:00 +26°C° 0 mm 5 mps 686 mmHg 55%
    11:00 +28°C° 0 mm 4 mps 686 mmHg 49%
    12:00 +30°C° 0 mm 4 mps 686 mmHg 43%
    13:00 +32°C° 0 mm 4 mps 687 mmHg 37%
    14:00 +32°C° 0 mm 5 mps 687 mmHg 38%
    15:00 +32°C° 0 mm 5 mps 686 mmHg 39%
    16:00 +32°C° 0 mm 6 mps 686 mmHg 40%
    17:00 +29°C° 0.1 mm 6 mps 686 mmHg 46%
    18:00 +27°C° 0.1 mm 7 mps 686 mmHg 53%
    19:00 +24°C° 0.1 mm 7 mps 686 mmHg 59%
    20:00 +22°C° 0 mm 7 mps 686 mmHg 62%
    21:00 +21°C° 0 mm 7 mps 687 mmHg 64%
    22:00 +20°C° 0 mm 7 mps 687 mmHg 67%
    23:00 +18°C° 0 mm 7 mps 687 mmHg 68%

    2 July, Sunday

    Time Temperature Precipitation Wind Pressure Humidity
    00:00 +19°C° 0 mm 6 mps 687 mmHg 68%
    01:00 +17°C° 0 mm 6 mps 687 mmHg 69%
    02:00 +17°C° 0.1 mm 6 mps 687 mmHg 72%
    03:00 +16°C° 0.1 mm 6 mps 687 mmHg 75%
    04:00 +16°C° 0.1 mm 5 mps 687 mmHg 78%
    05:00 +16°C° 0.1 mm 6 mps 687 mmHg 77%
    06:00 +17°C° 0.1 mm 6 mps 687 mmHg 75%
    07:00 +17°C° 0.1 mm 6 mps 687 mmHg 73%
    08:00 +19°C° 0 mm 6 mps 688 mmHg 64%
    09:00 +21°C° 0 mm 6 mps 688 mmHg 55%
    10:00 +23°C° 0 mm 6 mps 689 mmHg 45%
    11:00 +24°C° 0 mm 6 mps 689 mmHg 40%
    12:00 +27°C° 0 mm 6 mps 689 mmHg 35%
    13:00 +28°C° 0 mm 6 mps 689 mmHg 30%
    14:00 +28°C° 0 mm 6 mps 688 mmHg 31%
    15:00 +28°C° 0 mm 6 mps 688 mmHg 31%
    16:00 +28°C° 0 mm 6 mps 688 mmHg 32%
    17:00 +27°C° 0 mm 7 mps 688 mmHg 37%
    18:00 +24°C° 0 mm 7 mps 688 mmHg 43%
    19:00 +23°C° 0 mm 7 mps 688 mmHg 48%
    20:00 +21°C° 0 mm 7 mps 688 mmHg 55%
    21:00 +20°C° 0 mm 6 mps 688 mmHg 62%
    22:00 +19°C° 0 mm 5 mps 688 mmHg 68%
    23:00 +17°C° 0 mm 5 mps 688 mmHg 70%
    Show more